Bremerton, WA

4:07 AM PDT on October 22, 2019 (GMT -0700)
Bremerton National

Weather History for KPWT - August, 2019

Change the Weather History Date:

Thursday, August 15, 2019

  Actual Average Record
Temperature  
Mean Temperature 65 °F -  
Max Temperature 79 °F 74 °F 93 °F (2010)
Min Temperature 53 °F 50 °F 46 °F (1996)
Growing Degree Days 15 (Base 50)    
Moisture  
Dew Point 58 °F    
Average Humidity 86    
Maximum Humidity 100    
Minimum Humidity 54    
Precipitation  
Precipitation 0.00 in - - ()
Sea Level Pressure  
Sea Level Pressure 30.22 in    
Wind  
Wind Speed 3 mph (SW)    
Max Wind Speed 10 mph    
Max Gust Speed -    
Visibility 7 miles    
Events Fog    
Averages and records for this station are not official NWS values.
T = Trace of Precipitation, MM = Missing Value Source: NWS Daily Summary

Daily Weather History Graph

Daily Weather History Graph

Search for Another Location

Airport or City:

Astronomy

Aug. 15, 2019 Rise Set
Actual Time 6:06 AM PDT 8:23 PM PDT
Civil Twilight 5:33 AM PDT 8:56 PM PDT
Nautical Twilight 4:50 AM PDT 9:38 PM PDT
Astronomical Twilight 4:03 AM PDT 10:26 PM PDT
Moon 8:55 PM PDT (8/15) 6:03 AM PDT (8/15)
Length of Visible Light 15h 23m
Length of Day
14h 16m
Full, 100% of the Moon is Illuminated
Aug 15
Full
Aug 23
Last Quarter
Aug 30
New
Sep 5
First Quarter
Sep 13
Full

Hourly Weather History & Observations

Time (PDT) Temp. Dew Point Humidity Pressure Visibility Wind Dir Wind Speed Gust Speed Precip Events Conditions
12:56 AM 61.0 °F 55.0 °F 81% 30.23 in 10.0 mi Calm Calm - N/A   Scattered Clouds
1:56 AM 61.0 °F 57.0 °F 87% 30.24 in 10.0 mi Calm Calm - N/A   Scattered Clouds
2:56 AM 57.9 °F 55.9 °F 93% 30.24 in 10.0 mi Calm Calm - N/A   Clear
3:56 AM 57.0 °F 55.9 °F 96% 30.25 in 10.0 mi Calm Calm - N/A   Clear
4:44 AM 53.6 °F 53.6 °F 100% 30.21 in 2.0 mi Calm Calm - N/A   Partly Cloudy
4:56 AM 54.0 °F 54.0 °F 100% 30.25 in 10.0 mi SSW 3.5 mph - N/A   Mostly Cloudy
5:07 AM 57.2 °F 55.4 °F 94% 30.21 in 10.0 mi Calm Calm - N/A   Mostly Cloudy
5:33 AM 57.2 °F 57.2 °F 100% 30.21 in 2.0 mi SW 3.5 mph - N/A   Overcast
5:36 AM 57.2 °F 57.2 °F 100% 30.21 in 1.0 mi SSW 4.6 mph - N/A   Overcast
5:44 AM 57.2 °F 57.2 °F 100% 30.21 in 0.8 mi SSW 3.5 mph - N/A   Overcast
5:54 AM 57.2 °F 57.2 °F 100% 30.21 in 0.5 mi SSW 4.6 mph - N/A Fog Fog
5:56 AM 57.9 °F 57.0 °F 97% 30.25 in 0.2 mi SSW 4.6 mph - N/A Fog Fog
6:56 AM 57.9 °F 57.9 °F 100% 30.26 in 0.2 mi WSW 4.6 mph - N/A Fog Fog
7:02 AM 57.2 °F 57.2 °F 100% 30.22 in 0.8 mi SW 3.5 mph - N/A   Overcast
7:09 AM 57.2 °F 57.2 °F 100% 30.22 in 1.2 mi Calm Calm - N/A   Overcast
7:19 AM 57.2 °F 57.2 °F 100% - 0.8 mi WSW 3.5 mph - N/A   Overcast
7:39 AM 59.0 °F 57.2 °F 94% 30.23 in 1.2 mi SSW 5.8 mph - N/A   Overcast
7:45 AM 57.2 °F 57.2 °F 100% 30.23 in 0.8 mi SSW 3.5 mph - N/A   Overcast
7:56 AM 59.0 °F 57.9 °F 96% 30.27 in 0.8 mi SSW 5.8 mph - N/A   Overcast
8:14 AM 59.0 °F 57.2 °F 94% 30.23 in 1.2 mi South 5.8 mph - N/A   Overcast
8:23 AM 59.0 °F 57.2 °F 94% 30.23 in 2.5 mi South 5.8 mph - N/A   Overcast
8:34 AM 59.0 °F 57.2 °F 94% 30.24 in 5.0 mi SSW 4.6 mph - N/A   Overcast
8:56 AM 59.0 °F 57.9 °F 96% 30.28 in 8.0 mi Calm Calm - N/A   Overcast
9:56 AM 61.0 °F 59.0 °F 93% 30.28 in 10.0 mi SSW 5.8 mph - N/A   Overcast
10:27 AM 62.6 °F 59.0 °F 88% 30.24 in 10.0 mi SW 4.6 mph - N/A   Overcast
10:56 AM 63.0 °F 59.0 °F 87% - 10.0 mi SW 5.8 mph - N/A   Overcast
11:23 AM 64.4 °F 59.0 °F 83% 30.25 in 10.0 mi SSW 8.1 mph - N/A   Overcast
11:56 AM 66.9 °F 59.0 °F 76% 30.29 in 10.0 mi SW 4.6 mph - N/A   Overcast
12:40 PM 69.8 °F 60.8 °F 73% 30.23 in 10.0 mi Variable 5.8 mph - N/A   Scattered Clouds
12:56 PM 71.1 °F 60.1 °F 68% 30.27 in 10.0 mi West 4.6 mph - N/A   Clear
1:56 PM 73.9 °F 60.1 °F 62% 30.25 in 10.0 mi Variable 3.5 mph - N/A   Clear
2:56 PM 75.9 °F 60.1 °F 58% 30.23 in 10.0 mi SSW 10.4 mph - N/A   Clear
3:56 PM 77.0 °F 59.0 °F 54% 30.21 in 10.0 mi West 6.9 mph - N/A   Clear
4:56 PM 75.9 °F 59.0 °F 56% 30.20 in 10.0 mi West 9.2 mph - N/A   Scattered Clouds
5:56 PM 77.0 °F 60.1 °F 56% 30.17 in 10.0 mi South 6.9 mph - N/A   Clear
6:56 PM 75.0 °F 60.1 °F 60% 30.16 in 10.0 mi South 4.6 mph - N/A   Mostly Cloudy
7:56 PM 73.0 °F 60.1 °F 64% 30.15 in 10.0 mi SW 6.9 mph - N/A   Scattered Clouds
8:56 PM 70.0 °F 59.0 °F 68% 30.17 in 10.0 mi SW 8.1 mph - N/A   Partly Cloudy
9:56 PM 64.0 °F 57.9 °F 80% 30.18 in 10.0 mi SSW 5.8 mph - N/A   Partly Cloudy
10:56 PM 60.1 °F 57.0 °F 90% 30.18 in 10.0 mi SSW 3.5 mph - N/A   Clear
11:56 PM 57.0 °F 55.0 °F 93% 30.18 in 10.0 mi Calm Calm - N/A   Clear